[[{"header":{"parameterUnit":"m.s-1","parameterCategory":1,"la1":30.2991,"la2":30.254,"lo1":-89.0895,"lo2":-89.0444,"dy":0.0017,"dx":0.0017,"nx":28,"ny":28,"refTime":"2024-08-26T09:00:00:Z","depth":0,"parameterNumber":2,"parameterNumberName":"U-component_of_WINDS"},"data":[0,0,0,0,0,0,0,0,0,0,0,0,0,0,0,0,0,0,0,0,0,0,0,0,0,0,0,0,0,0,0,0,0,0,0,0,0,0,0,0,0,0,0,0,0,0,0,0,0,0,0,0,0,0,0,0,0,0,0.4975,0.4975,0,0.4998,0.4998,0.4998,0.5027,0.5028,0.5028,0.5028,0.505,0.505,0.5051,0,0,0,0,0,0,0,0,0,0,0,0,0,0.4953,0.4953,0.4975,0.4975,0.4975,0.4998,0.4998,0.4998,0.5027,0.5028,0.5028,0.5029,0.505,0.505,0.5051,0,0,0,0,0,0,0,0,0,0,0,0,0,0.4968,0.4953,0.4975,0.4992,0.4994,0.4998,0.4998,0.4998,0.5027,0.5028,0.5028,0.5029,0.505,0.505,0.5051,0.5038,0,0,0.5051,0.5051,0,0,0,0,0,0,0,0,0.4967,0.4969,0.4989,0.4991,0.4993,0.501,0.4998,0.5012,0.5027,0.5014,0.5028,0.5029,0.5036,0.5038,0.504,0.5039,0.504,0.5051,0.5051,0.5052,0.5052,0,0,0,0,0,0,0,0.4966,0.4968,0.4984,0.499,0.4992,0.4998,0.5001,0.5001,0.5021,0.5015,0.5018,0.502,0.5037,0.504,0.5041,0.504,0.5051,0.5052,0.5052,0.5052,0.5028,0.5028,0,0,0,0,0,0,0.4962,0.4967,0.4983,0.4984,0.4982,0.4998,0.5001,0.5004,0.5021,0.5025,0.5019,0.5021,0.5039,0.5041,0.5042,0.5027,0.5052,0.5052,0.5052,0.5029,0.5028,0.5027,0,0,0,0,0,0,0.4962,0.4964,0.4982,0.4976,0.4979,0.4998,0.5001,0.5004,0.5007,0.5024,0.5028,0.5019,0.504,0.5042,0.5039,0.5028,0.5052,0.5052,0.503,0.5029,0.5028,0.4998,0,0,0,0,0,0,0.4961,0.4963,0.4959,0.4976,0.4979,0.4979,0.5,0.5004,0.5007,0.501,0.5024,0.5027,0.5041,0.5038,0.5039,0.5029,0.5052,0.5031,0.5029,0.5028,0.5,0.4996,0.4992,0,0,0,0,0,0.496,0.495,0.4959,0.4961,0.4975,0.4978,0.498,0.4996,0.5007,0.5002,0.5013,0.5027,0.503,0.5038,0.5039,0.5029,0.5032,0.503,0.5028,0.5001,0.4997,0.4993,0,0,0,0,0,0,0.4931,0.4952,0.4963,0.4957,0.4966,0.4983,0.4978,0.4991,0.4996,0.4998,0.5017,0.502,0.5014,0.5022,0.503,0.5017,0.5033,0.5031,0.5012,0.5008,0.5004,0.5001,0.5052,0,0,0,0,0,0.4924,0.4926,0.4944,0.4938,0.4942,0.4959,0.4961,0.4973,0.4982,0.4985,0.4996,0.5004,0.5007,0.5008,0.5011,0.5002,0.5004,0.4995,0.4992,0.4988,0.4986,0.498,0.4976,0.5022,0.5022,0.5022,0,0,0.491,0.4922,0.4921,0.4932,0.494,0.494,0.4962,0.4962,0.4962,0.4985,0.4983,0.4991,0.5001,0.4994,0.4991,0.5,0.4974,0.4986,0.4984,0.4983,0.4978,0.4973,0.497,0.5021,0.5021,0.5021,0,0,0.4883,0.4893,0.4888,0.4895,0.4907,0.4919,0.4917,0.4933,0.4939,0.4937,0.4954,0.4954,0.4959,0.4965,0.4968,0.4943,0.4955,0.4944,0.4924,0.4918,0.4914,0.4911,0.49,0.4896,0.4942,0.4942,0.4942,0,0.4863,0.4865,0.4884,0.4882,0.4885,0.4908,0.4902,0.4908,0.492,0.4921,0.4931,0.4936,0.4945,0.4939,0.4932,0.4935,0.4933,0.4941,0.4913,0.491,0.4907,0.4897,0.4893,0.494,0.494,0.4941,0.4941,0,0.4839,0.484,0.4835,0.4846,0.4849,0.4845,0.4862,0.4863,0.4875,0.4885,0.4881,0.4892,0.4898,0.4898,0.4909,0.4893,0.4897,0.491,0.4926,0.4901,0.4892,0.4888,0.4938,0.4938,0.4939,0.4939,0,0,0.4794,0.4815,0.4813,0.4817,0.4832,0.4832,0.4829,0.4835,0.4834,0.4842,0.4839,0.4842,0.4853,0.4857,0.4869,0.4864,0.4841,0.4877,0.4877,0.4868,0.4822,0.4811,0.4807,0.485,0.485,0.4849,0.4821,0,0.4769,0.4765,0.4781,0.4773,0.4773,0.4794,0.4791,0.4799,0.4808,0.4809,0.482,0.4821,0.4836,0.4839,0.4835,0.4845,0.4832,0.4847,0.4846,0.4845,0.4841,0.4802,0.4791,0.4763,0.4817,0.4817,0.4816,0,0.4738,0.4744,0.4735,0.4749,0.475,0.4747,0.4753,0.4754,0.4763,0.477,0.4774,0.4788,0.4785,0.4802,0.4797,0.4807,0.4807,0.4812,0.4812,0.481,0.4828,0.4798,0.4755,0.475,0.4811,0.4812,0.4812,0,0.4704,0.471,0.4705,0.4708,0.4725,0.4722,0.4729,0.4739,0.474,0.4745,0.4747,0.4751,0.4753,0.4756,0.477,0.4781,0.4763,0.4781,0.4767,0.4767,0.4761,0.4761,0.4715,0.4764,0.4764,0.4765,0.4765,0,0.4672,0.4666,0.4689,0.4686,0.4679,0.4698,0.469,0.4699,0.4707,0.4705,0.4724,0.4722,0.4742,0.4741,0.4753,0.4746,0.4747,0.4752,0.4754,0.4749,0.4748,0.4748,0.4749,0.4763,0.4764,0.4764,0.4764,0,0.4632,0.4648,0.4643,0.4659,0.4663,0.4657,0.467,0.4667,0.4678,0.4676,0.4676,0.4693,0.4693,0.4708,0.4712,0.4719,0.4707,0.4714,0.4704,0.4705,0.469,0.469,0.4641,0.4635,0.469,0.4689,0.4689,0,0.461,0.4605,0.4621,0.4621,0.4627,0.4627,0.4629,0.4647,0.4648,0.4658,0.4653,0.4656,0.4658,0.4657,0.4669,0.4672,0.4678,0.4661,0.4678,0.4672,0.4675,0.4674,0.4673,0.4656,0.4656,0.4655,0.4655,0,0.4569,0.4577,0.4579,0.4584,0.4585,0.459,0.4596,0.4595,0.4615,0.4615,0.4615,0.4617,0.4621,0.4622,0.4627,0.4633,0.4646,0.4649,0.4646,0.4639,0.4632,0.4633,0.4691,0.465,0.465,0.4651,0.4651,0.4651,0.4536,0.4532,0.4542,0.4543,0.455,0.4554,0.4552,0.4562,0.4563,0.4568,0.4579,0.4577,0.4585,0.4593,0.4598,0.4596,0.4605,0.46,0.4599,0.4597,0.4593,0.4634,0.4597,0.4598,0.4598,0.4598,0.4598,0,0.4493,0.4501,0.4502,0.4509,0.451,0.4524,0.4531,0.453,0.4529,0.4536,0.4538,0.4538,0.4539,0.4551,0.4553,0.455,0.4556,0.4549,0.4549,0.4549,0.4586,0.4588,0.4544,0.4544,0.4544,0.4544,0.4544,0.4544,0.4471,0.4465,0.4474,0.4471,0.4478,0.4477,0.4479,0.4483,0.4489,0.4488,0.4489,0.4497,0.4506,0.4508,0.451,0.4513,0.4512,0.4503,0.4508,0.4542,0.4547,0.4552,0.4554,0.4503,0.4503,0.4471,0.4471,0.4471]},{"header":{"parameterUnit":"m.s-1","parameterCategory":1,"la1":30.2991,"la2":30.254,"lo1":-89.0895,"lo2":-89.0444,"dy":0.0017,"dx":0.0017,"nx":28,"ny":28,"refTime":"2024-08-26T09:00:00:Z","depth":0,"parameterNumber":3,"parameterNumberName":"V-component_of_WINDS"},"data":[0,0,0,0,0,0,0,0,0,0,0,0,0,0,0,0,0,0,0,0,0,0,0,0,0,0,0,0,0,0,0,0,0,0,0,0,0,0,0,0,0,0,0,0,0,0,0,0,0,0,0,0,0,0,0,0,0,0,-1.1683,-1.1684,0,-1.173,-1.1731,-1.1731,-1.1752,-1.1752,-1.1752,-1.1752,-1.1799,-1.18,-1.1801,0,0,0,0,0,0,0,0,0,0,0,0,0,-1.1611,-1.1612,-1.1683,-1.1684,-1.1684,-1.173,-1.1731,-1.1731,-1.1752,-1.1752,-1.1752,-1.1752,-1.1798,-1.18,-1.1801,0,0,0,0,0,0,0,0,0,0,0,0,0,-1.1648,-1.1612,-1.1683,-1.17,-1.1702,-1.173,-1.1731,-1.1732,-1.1752,-1.1752,-1.1752,-1.1752,-1.1798,-1.18,-1.1802,-1.1816,0,0,-1.1808,-1.1808,0,0,0,0,0,0,0,0,-1.1646,-1.1651,-1.1697,-1.1699,-1.1701,-1.1735,-1.1722,-1.176,-1.1752,-1.1733,-1.1752,-1.1752,-1.1778,-1.1781,-1.179,-1.1818,-1.182,-1.1808,-1.1809,-1.181,-1.181,0,0,0,0,0,0,0,-1.1644,-1.1649,-1.1702,-1.1698,-1.17,-1.1705,-1.1711,-1.173,-1.1755,-1.1735,-1.1736,-1.1742,-1.1779,-1.1788,-1.1791,-1.182,-1.1808,-1.1809,-1.1811,-1.1811,-1.1862,-1.1862,0,0,0,0,0,0,-1.1638,-1.1647,-1.17,-1.1703,-1.1673,-1.1707,-1.1713,-1.1724,-1.1755,-1.176,-1.1742,-1.1742,-1.1785,-1.1789,-1.1793,-1.1812,-1.181,-1.1812,-1.1813,-1.1862,-1.1862,-1.1862,0,0,0,0,0,0,-1.1637,-1.1643,-1.1698,-1.1675,-1.1683,-1.1708,-1.1721,-1.1725,-1.1735,-1.176,-1.1765,-1.1747,-1.1785,-1.179,-1.181,-1.1813,-1.1813,-1.1814,-1.1861,-1.1862,-1.1862,-1.1848,0,0,0,0,0,0,-1.1634,-1.1642,-1.1648,-1.1675,-1.1684,-1.1715,-1.1721,-1.1726,-1.1738,-1.174,-1.1766,-1.1771,-1.1785,-1.1807,-1.1812,-1.1816,-1.1816,-1.1861,-1.1862,-1.1862,-1.1849,-1.1848,-1.1848,0,0,0,0,0,-1.1632,-1.1642,-1.1648,-1.1654,-1.1692,-1.1715,-1.172,-1.1737,-1.1739,-1.1744,-1.1761,-1.177,-1.1812,-1.1809,-1.1814,-1.1819,-1.1861,-1.1862,-1.1862,-1.1849,-1.1848,-1.1848,0,0,0,0,0,0,-1.1614,-1.1646,-1.1653,-1.1673,-1.1691,-1.1718,-1.1726,-1.1736,-1.1754,-1.1754,-1.1774,-1.178,-1.1798,-1.1811,-1.1806,-1.1834,-1.1837,-1.1839,-1.1826,-1.1825,-1.1825,-1.1821,-1.1817,0,0,0,0,0,-1.1612,-1.1629,-1.1656,-1.167,-1.1679,-1.1701,-1.1712,-1.1723,-1.1743,-1.1751,-1.1768,-1.1787,-1.1804,-1.1815,-1.1833,-1.185,-1.1857,-1.1857,-1.1856,-1.1856,-1.1857,-1.1867,-1.1867,-1.1863,-1.1863,-1.1863,0,0,-1.1609,-1.1629,-1.1638,-1.1667,-1.1683,-1.1699,-1.1707,-1.1724,-1.1736,-1.1753,-1.1773,-1.1786,-1.1808,-1.1827,-1.1836,-1.1838,-1.1859,-1.1856,-1.1856,-1.1857,-1.1867,-1.1868,-1.1868,-1.1863,-1.1863,-1.1863,0,0,-1.1612,-1.1628,-1.1642,-1.1657,-1.1681,-1.1695,-1.1699,-1.1725,-1.1735,-1.1755,-1.1768,-1.1782,-1.1812,-1.1827,-1.1839,-1.1846,-1.1855,-1.1852,-1.1849,-1.1859,-1.1859,-1.186,-1.1862,-1.1863,-1.1853,-1.1853,-1.1853,0,-1.1605,-1.163,-1.1648,-1.1664,-1.1676,-1.1693,-1.1707,-1.1721,-1.1749,-1.1757,-1.1759,-1.1797,-1.1812,-1.1835,-1.1837,-1.1846,-1.185,-1.1849,-1.1858,-1.1858,-1.1859,-1.1862,-1.1863,-1.1852,-1.1852,-1.1852,-1.1852,0,-1.162,-1.1637,-1.1645,-1.1672,-1.1686,-1.1701,-1.1721,-1.1732,-1.1742,-1.1757,-1.1777,-1.1796,-1.1818,-1.1824,-1.1834,-1.1848,-1.1849,-1.1854,-1.1857,-1.1858,-1.1862,-1.1863,-1.1851,-1.1851,-1.1851,-1.1852,0,0,-1.1612,-1.1649,-1.1652,-1.1664,-1.1691,-1.1705,-1.172,-1.1742,-1.1751,-1.177,-1.1783,-1.1808,-1.1813,-1.1826,-1.1838,-1.1847,-1.1852,-1.1851,-1.1852,-1.1851,-1.1868,-1.1864,-1.1865,-1.1858,-1.1858,-1.1858,-1.1866,0,-1.1619,-1.1648,-1.1664,-1.1686,-1.1702,-1.1718,-1.1732,-1.1749,-1.1763,-1.1778,-1.1793,-1.1811,-1.1816,-1.1824,-1.1833,-1.1849,-1.1856,-1.1849,-1.187,-1.1871,-1.1865,-1.1867,-1.1862,-1.1869,-1.1868,-1.1868,-1.1868,0,-1.163,-1.1648,-1.1672,-1.1697,-1.1705,-1.1716,-1.1738,-1.1752,-1.1773,-1.1782,-1.1796,-1.1808,-1.1825,-1.1827,-1.185,-1.1845,-1.1855,-1.1864,-1.1865,-1.1868,-1.187,-1.1869,-1.1871,-1.1872,-1.187,-1.187,-1.187,0,-1.1622,-1.1653,-1.1671,-1.1681,-1.1711,-1.1719,-1.1732,-1.1752,-1.1764,-1.1782,-1.179,-1.181,-1.1821,-1.1836,-1.1853,-1.1853,-1.1874,-1.1878,-1.1883,-1.1882,-1.1886,-1.1886,-1.189,-1.1893,-1.1892,-1.1892,-1.1892,0,-1.1627,-1.1641,-1.1668,-1.1679,-1.1695,-1.1714,-1.1729,-1.1743,-1.1761,-1.1775,-1.179,-1.1802,-1.1824,-1.1839,-1.1852,-1.187,-1.1874,-1.1882,-1.1886,-1.1881,-1.188,-1.1888,-1.1888,-1.1893,-1.1893,-1.1893,-1.1893,0,-1.1621,-1.164,-1.1661,-1.1687,-1.1694,-1.1705,-1.1728,-1.1739,-1.1753,-1.1771,-1.1776,-1.1798,-1.1817,-1.1835,-1.186,-1.1869,-1.1886,-1.1891,-1.188,-1.1882,-1.1885,-1.1885,-1.1895,-1.1897,-1.1897,-1.1897,-1.1897,0,-1.1624,-1.1635,-1.1662,-1.1673,-1.1685,-1.1702,-1.1714,-1.1733,-1.1745,-1.177,-1.1778,-1.1798,-1.1815,-1.1844,-1.1862,-1.1882,-1.1887,-1.1889,-1.189,-1.1885,-1.1887,-1.1886,-1.1887,-1.1888,-1.1888,-1.1888,-1.1888,0,-1.1625,-1.1634,-1.1651,-1.1672,-1.1686,-1.1703,-1.172,-1.1728,-1.175,-1.1763,-1.1783,-1.1796,-1.1822,-1.1841,-1.1862,-1.1875,-1.1885,-1.1887,-1.189,-1.1885,-1.1878,-1.1882,-1.1878,-1.1887,-1.1887,-1.1887,-1.1887,-1.1887,-1.1624,-1.1634,-1.1655,-1.1674,-1.1689,-1.1705,-1.1717,-1.1733,-1.175,-1.1772,-1.1782,-1.1802,-1.1822,-1.1852,-1.1865,-1.188,-1.1883,-1.1886,-1.1886,-1.1887,-1.1886,-1.1876,-1.1884,-1.1884,-1.1884,-1.1884,-1.1884,0,-1.1626,-1.1641,-1.1658,-1.1682,-1.1696,-1.1705,-1.1724,-1.1736,-1.1753,-1.1771,-1.1788,-1.181,-1.1829,-1.1849,-1.1869,-1.1877,-1.1882,-1.1882,-1.1882,-1.1884,-1.1883,-1.1879,-1.1878,-1.1878,-1.1878,-1.1878,-1.1878,-1.1878,-1.1629,-1.1648,-1.1659,-1.1685,-1.1699,-1.1719,-1.1729,-1.1744,-1.1758,-1.1783,-1.1799,-1.1811,-1.183,-1.1852,-1.1869,-1.1875,-1.1881,-1.188,-1.1886,-1.1884,-1.1885,-1.1885,-1.1882,-1.1881,-1.1881,-1.1887,-1.1887,-1.1887]}]]